Weather in Andijan

Uzbekistan     40°36′31″N   68°14′34″E
temp.,
°C
wind,
m/s
gust,
m/s
humid.,
%
clouds,
%
prec.,
mm/h
press.,
hPa
HPBL,
m
20 january, wed
wed2023:00+11sse4559100 5.6 102084
02:00+10sw486935 0.1 1022162
05:00+8s337321 0.1 102429
08:00+8ene227287 0.0 102422
11:00+12e355793 0.0 1023338
14:00+15ese794485 0.0 1020585
17:00+12ese7145272 0.0 1020429
20:00+11se918590 0.0 1020437
21 january, thu
thu2123:00+10ese918600 0.0 1018466
02:00+10ese818540 0.0 1016400
05:00+10se818480 0.0 1014396
08:00+9se819490 0.0 1012435
11:00+13ese1015320 0.0 1010495
14:00+16ese8112660 0.0 1006437
17:00+13ese7132880 0.0 1005305
20:00+11ne2335100 0.0 100835
22 january, fri
fri2223:00+10nnw2664100 0.1 1009372
02:00+5nw6979100 3.3 1012573
05:00−1wnw121785100 5.7 1019905
08:00−2wnw8138699 0.6 1029809
11:00−2nw5792100 2.6 1033515
14:00−2nw4578100 0.4 1034684
17:00−2nnw2468100 0.4 1035869
20:00−3w1179100 0.1 1038359
23 january, sat
sat2323:00−4wnw1193100 0.4 1040114
02:00−4ssw2481100 0.1 1040283
05:00−4sw477298 0.1 1040250
08:00−4s5107499 0.0 1041447
11:00−1s476198 0.0 1040824
14:00+1s4653100 0.0 1038932
17:000se4663100 0.0 1038314
20:00−1se4665100 0.0 1040148
24 january, sun
sun2423:00−1se226497 0.0 104039
02:00−2se226169 0.0 104021
05:00−3ese225734 0.0 103923
08:00−3ese412700 0.0 1039335
11:00+2ese812610 0.0 1037631
14:00+3e58500 0.0 1034902
17:00+2ne33590 0.0 103455
20:00−1ne23730 0.0 103438